Other Public Products
Issued by NWS Grand Forks, ND

Home | Current Version | Previous Version | Graphics & Text | Print | Product List | Glossary On
Versions: 1 2 3 4 5 6 7 8 9 10 11 12 13 14 15 16 17 18 19 20 21 22 23 24 25 26 27 28 29 30 31 32 33 34 35 36 37 38 39 40 41 42 43 44 45 46 47 48 49 50
000
FPUS83 KFGF 261810
OPUFGF
PRAIRIE TO PINES WEATHER ROUNDUP
NATIONAL WEATHER SERVICE EASTERN NORTH DAKOTA/GRAND FORKS ND
100 PM CDT TUE SEP 26 2017

 **SATELLITE DATA USED TO AUGMENT SKY COVER AT AUTOMATED STATIONS**
 *****  WEATHER ACROSS EASTERN NORTH DAKOTA  *****

CITY           SKY/WX    TMP DP  RH WIND       PRES   REMARKS
GRAND FORKS    RAIN      49  49 100 NW9       30.08F
6HR MIN TEMP:  49; 6HR MAX TEMP:  50; 6HR PCP:  0.65;

GRAND FORKS AF LGT RAIN  48  48  99 NW9       30.09F
GRAND CITY NWS NOT AVBL
BUXTON         NOT AVBL
DEVILS LAKE    CLOUDY    46  44  93 N7        30.13S
6HR MIN TEMP:  45; 6HR MAX TEMP:  46; 6HR PCP: TRACE;

FARGO          CLOUDY    53  51  93 NW12      30.05F
6HR MIN TEMP:  50; 6HR MAX TEMP:  53; 6HR PCP:  0.32;

WAHPETON ARPT  CLOUDY    54  46  76 NW12      30.07R
$$

 *****  WEATHER ACROSS CENTRAL AND WESTERN NORTH DAKOTA  *****

CITY           SKY/WX    TMP DP  RH WIND       PRES   REMARKS
JAMESTOWN      CLOUDY    51  45  79 NW8       30.10S
6HR MIN TEMP:  47; 6HR MAX TEMP:  52; 6HR PCP:  0.07;

BISMARCK       CLOUDY    53  44  71 CALM      30.14S
6HR MIN TEMP:  44; 6HR MAX TEMP:  54;

MINOT          CLOUDY    54  40  59 CALM      30.11S
6HR MIN TEMP:  48; 6HR MAX TEMP:  54;

MINOT AFB      CLOUDY    51  45  79 SW3       30.10S
6HR MIN TEMP:  47; 6HR MAX TEMP:  52;

GARRISON         N/A     50  45  83 S5        30.12F
6HR MIN TEMP:  45; 6HR MAX TEMP:  50;

WILLISTON      CLOUDY    52  43  71 SW3       30.13S
6HR MIN TEMP:  46; 6HR MAX TEMP:  53;

DICKINSON      CLOUDY    51  44  77 NE5       30.10S
6HR MIN TEMP:  44; 6HR MAX TEMP:  51;

HETTINGER      PTSUNNY   52  41  66 W12       30.13S
6HR MIN TEMP:  43; 6HR MAX TEMP:  53;

$$

 *****  OTHER OBSERVATIONS NORTHEAST NORTH DAKOTA  *****

CITY           SKY/WX    TMP DP  RH WIND       PRES   REMARKS
WALHALLA       NOT AVBL
LANGDON        NOT AVBL
CAVALIER       NOT AVBL
GRAFTON        NOT AVBL
CANDO          NOT AVBL
FORT TOTTEN      N/A     49  44  81 N3        29.95S
ROLLA          NOT AVBL
RUGBY          NOT AVBL
 ***** THE ABOVE OBSERVATIONS ARE NON NWS ARE NOT QUALITY
        CONTROLLED AND MAY MIS-REPORT RAIN FOR SNOW...
$$

 *****  OTHER OBSERVATIONS SOUTHEAST NORTH DAKOTA *****

CITY           SKY/WX    TMP DP  RH WIND       PRES   REMARKS
COOPERSTOWN    NOT AVBL
VALLEY CITY    NOT AVBL
OAKES          NOT AVBL
GWINNER        NOT AVBL
SHEYENNE NWR     N/A     55  50  84 NW7       29.95S
BUFFALO        NOT AVBL
WYNDMERE       NOT AVBL
 ***** THE ABOVE OBSERVATIONS ARE NON NWS ARE NOT QUALITY
       CONTROLLED AND MAY MIS-REPORT RAIN FOR SNOW...
$$

  *****  WEATHER ACROSS NORTHERN MINNESOTA  *****

CITY           SKY/WX    TMP DP  RH WIND       PRES   REMARKS
FLAG ISLAND    LGT RAIN  50  46  87 N10       30.03F
WARROAD        LGT RAIN  50  46  87 NW7       30.04F
ROSEAU         LGT RAIN  50  45  81 N7        30.05S
HALLOCK        RAIN      50  48  93 NW5       30.08S
THF RVR FALLS  RAIN      50  49  96 NW7       30.07R
6HR MIN TEMP:  49; 6HR MAX TEMP:  50; 6HR PCP:  0.41;

HALSTAD        NOT AVBL
FOSSTON        LGT RAIN  48  46  93 NW8       30.05S
BAUDETTE       LGT RAIN  50  49  96 N8        30.02F
6HR MIN TEMP:  49; 6HR MAX TEMP:  50; 6HR PCP:  0.24;

WASKISH        LGT RAIN  50  50 100 N7        30.00F
CROOKSTON      RAIN      48  48 100 NW9       30.08S
$$
  *****  WEATHER ACROSS CENTRAL AND WEST MINNESOTA  *****

CITY           SKY/WX    TMP DP  RH WIND       PRES   REMARKS
BEMIDJI        DRIZZLE   50  49  94 W8        30.01R
6HR MIN TEMP:  48; 6HR MAX TEMP:  51; 6HR PCP:  0.07;

PARK RAPIDS    CLOUDY    56  52  86 NW10      30.00F
6HR MIN TEMP:  51; 6HR MAX TEMP:  55; 6HR PCP:  0.06;

WADENA         PTSUNNY   54  52  94 NW8       30.01F
DETROIT LAKES  CLOUDY    52  50  93 NW10      30.04F
MOORHEAD       CLOUDY    54  48  82 NW14      30.06F
FERGUS FALLS   CLOUDY    54  54 100 NW13      30.05F
ELBOW LAKE     CLOUDY    54  50  86 NW12      30.05S
MORRIS MN      PTSUNNY   57  52  82 NW13      30.05R
STAPLES        PTSUNNY   54  54 100 NW9       30.00F
WHEATON        CLOUDY    55  48  76 W12       30.09S
$$
  *****  WEATHER ELSEWHERE ACROSS MINNESOTA  *****

CITY           SKY/WX    TMP DP  RH WIND       PRES   REMARKS
DULUTH         DRIZZLE   54  53  97 NE7       29.92R FOG
6HR MIN TEMP:  52; 6HR MAX TEMP:  54; 6HR PCP:  0.13;

INTRNTL FALLS  LGT RAIN  50  50 100 N6        29.98F
6HR MIN TEMP:  50; 6HR MAX TEMP:  51;

ELY            DRIZZLE   52  52 100 CALM      29.92S
CLOQUET        CLOUDY    55  52  88 CALM      29.93S FOG
BRAINERD       CLOUDY    56  53  90 NW8       29.99S
6HR MIN TEMP:  53; 6HR MAX TEMP:  55; 6HR PCP:  0.07;

HIBBING        LGT RAIN  51  51 100 NW7       29.94S FOG
6HR MIN TEMP:  50; 6HR MAX TEMP:  52; 6HR PCP:  0.33;

ALEXANDRIA     PTSUNNY   59  51  75 NW13      30.04F
6HR MIN TEMP:  52; 6HR MAX TEMP:  59; 6HR PCP:  0.07;

SAINT CLOUD    CLOUDY    58  54  86 W16       30.00S
6HR MIN TEMP:  53; 6HR MAX TEMP:  58; 6HR PCP:  0.01;

MINNEAPOLIS    CLOUDY    61  55  81 W16       29.99S
6HR MIN TEMP:  58; 6HR MAX TEMP:  62; 6HR PCP: TRACE;

$$

  *****  WEATHER ACROSS SOUTH DAKOTA  *****

CITY           SKY/WX    TMP DP  RH WIND       PRES   REMARKS
SIOUX FALLS    CLOUDY    55  50  83 NW10      30.13R
6HR MIN TEMP:  50; 6HR MAX TEMP:  56;

BROOKINGS      CLOUDY    54  48  80 NW14      30.11S
WATERTOWN      CLOUDY    53  47  79 NW12      30.09F
6HR MIN TEMP:  48; 6HR MAX TEMP:  53;

HURON          PTSUNNY   57  46  66 NW8       30.14S
6HR MIN TEMP:  47; 6HR MAX TEMP:  57;

SISSETON         N/A     56  49  77 NW14      30.08R
ABERDEEN       FAIR      59  47  64 N10       30.10F
6HR MIN TEMP:  48; 6HR MAX TEMP:  59;

MITCHELL       FAIR      58  46  64 NW8       30.15F
PIERRE         FAIR      59  44  57 S5        30.11F
6HR MIN TEMP:  40; 6HR MAX TEMP:  59;

MOBRIDGE       PTSUNNY   56  45  66 CALM      30.11S
RAPID CITY     MOSUNNY   61  39  44 VRB6      30.13F
$$

  *****  SOME WEATHER IN NEARBY STATES *****

CITY           SKY/WX    TMP DP  RH WIND       PRES   REMARKS
GLASGOW MT     FAIR      58  40  51 S8        30.11S
6HR MIN TEMP:  36; 6HR MAX TEMP:  58;

GREAT FALLS MT FAIR      61  38  42 SW10      30.15F
6HR MIN TEMP:  46; 6HR MAX TEMP:  62;

CHEYENNE WY    FAIR      57  27  31 VRB3      30.22F
6HR MIN TEMP:  35; 6HR MAX TEMP:  57;

SCOTTSBLUFF NE FAIR      59  41  51 NW7       30.19F
6HR MIN TEMP:  34; 6HR MAX TEMP:  59;

OMAHA NE       PTSUNNY   60  51  72 N12       30.13S
6HR MIN TEMP:  55; 6HR MAX TEMP:  60; 6HR PCP: TRACE;

DES MOINES IA  CLOUDY    65  57  75 NW14      30.04S
6HR MIN TEMP:  63; 6HR MAX TEMP:  67; 6HR PCP:  0.03;

DAVENPORT IA   FAIR      80  66  62 W12G17    29.98S
6HR MIN TEMP:  68; 6HR MAX TEMP:  81;

CHICAGO IL     FAIR      89  61  38 SW12G21   29.93F
6HR MIN TEMP:  72; 6HR MAX TEMP:  91;

EAU CLAIRE WI  CLOUDY    62  59  90 W14       29.94R
6HR MIN TEMP:  62; 6HR MAX TEMP:  65; 6HR PCP:  0.23;

LA CROSSE WI   CLOUDY    70  65  84 NW15G22   29.94S
6HR MIN TEMP:  68; 6HR MAX TEMP:  73; 6HR PCP:  0.04;

$$

  *****  SOME NATIONAL WEATHER *****

CITY           SKY/WX    TMP DP  RH WIND       PRES   REMARKS
LA GUARDIA NY  PTSUNNY   81  70  69 NE8       30.00F
6HR MIN TEMP:  69; 6HR MAX TEMP:  81;



USA.gov is the U.S. government's official web portal to all federal, state and local government web resources and services.